Location: Peterborough
(44.3091°N, 78.3197°W)
Time: 00:30:54
(UTC-04:00)

Courier 1B - Pass Details

Date: 24 February 2024
Orbit: 962 x 1208 km, 28.3° (Epoch: 17 April)

Event Time Altitude Azimuth Distance (km) Brightness Sun altitude
Exits shadow 05:29:33 10° 218° (SW) 2,816 9.5 -16.8°
Reaches altitude 10° 05:29:59 10° 214° (SW) 2,779 9.5 -16.8°
Maximum altitude 05:31:36 11° 200° (SSW) 2,730 9.6 -16.5°
Drops below altitude 10° 05:33:14 10° 186° (S) 2,816 9.8 -16.2°
Sets 05:38:38 0° 152° (SSE) 3,839 11.0 -15.2°
